Location: Berduj
(43.0019°N, 22.3781°E)
Time: 14:19:31
(UTC+00:00)

Cosmos 1939 Rocket - Pass Details

Date: 19 October 2019
Orbit: 533 x 584 km, 97.4° (Epoch: 19 November)

Event Time Altitude Azimuth Distance (km) Brightness Sun altitude
Exits shadow 16:15:37 - 122° (ESE) 2,543 5.7 -6.9°
Reaches altitude 10° 16:17:51 10° 104° (ESE) 1,846 4.9 -7.3°
Maximum altitude 16:20:21 16° 65° (ENE) 1,495 4.4 -7.7°
Drops below altitude 10° 16:22:53 10° 26° (NNE) 1,874 5.2 -8.2°
Sets 16:25:42 0° 5° (N) 2,787 6.3 -8.7°
